ROMMA est une association bénévole à but non lucratif. Votre soutien est indispensable : ADHERER à ROMMA ou FAIRE un DON

Granges-lès-Beaumont - (26, Drôme)

Drôme des Collines (155 m)   Longitude: 04°58'E   Latitude: 45°03'N Station partenaire n°123
 

Détail journalier du     <<     >>

Température Precipitation Humidité Pression Vent Dir Rafale Dir. rafale Ensol.
Heure (°C) (mm) (%) (hPa) (km/h) (km/h) (min)
01:00 7.3096100505NNO0
02:00 6.809610041---5NO0
03:00 5.609610042NO8E0
04:00 5.209610033N8N0
05:00 4.109610031NNO6NNO0
06:00 5.209710043NNO8NNE0
07:00 5.409710042E10E0
08:00 4.909710041ONO6OSO0
09:00 5.709710051ENE8E0
10:00 6.309110051ONO6OSO0
11:00 6.708910041---10E0
12:00 7.408710041ESE10E0
13:00 8.808410043SSE8SSE30
14:00 9.608010044SE13E60
15:00 10.107910043ESE13ESE20
16:00 10.407910042ESE8E10
17:00 9.708310051NNO5NNE20
18:00 8.2089100503NO0
19:00 6.4092100600---0
20:00 6.009410061---11NNO0
21:00 5.709310074NNO13NNO0
22:00 5.309310073NNO8NNO0
23:00 5.4094100806NO0
minuit 5.609410091ONO8ONO0

Graphique du 08-11-2019

 

Serveur OMMA